User: anonymous   Login
Location: Festilli
(46.4000°N, 11.6667°E)
Time: 15:00:30
(UTC+00:00)
Language:

Cosmos 864 Rocket - Orbit

View from above orbital plane
View from above orbital plane
View from above satellite
View from above satellite

Ground track
Ground track

The orbit data is extracted from the following two-line orbital elements,

1 09510U 76108B   21137.81957423  .00000048  00000-0  32009-4 0  9990
2 09510  82.9402  40.0239 0026954 134.4063 225.9308 13.77596222238441
Epoch (UTC): 17 May 2021 19:40:11
Eccentricity: 0.0026954
inclination: 82.9402°
perigee height: 952 km
apogee height: 992 km
right ascension of ascending node: 40.0239°
argument of perigee: 134.4063°
revolutions per day: 13.77596222
mean anomaly at epoch: 225.9308°
orbit number at epoch: 23844

The dashed part of the orbit path shows where the satellite is in the earth's shadow,  

DLR